Temperature
17 17 17 17 17 16 16 16 16 16 16 16 16 15 15 15 15 15 15 15 15 15 15 15 15 15 15 15 15 15 14 14 14 13 13 13 13 13 13 12 12 12 12
17 17 17 17 17 16 16 16 16 16 16 16 16 16 15 15 15 15 15 15 15 15 15 15 15 15 15 15 14 14 14 14 14 13 13 13 13 13 12 12 12 12 12
17 17 17 17 17 17 16 16 16 16 16 16 16 16 16 15 15 15 15 15 15 15 15 15 15 15 15 14 14 14 14 14 14 13 13 13 12 12 12 12 12 12 12
17 17 17 17 17 17 17 16 16 16 16 16 16 16 16 15 15 15 15 15 15 15 15 15 15 15 15 14 14 14 14 14 13 13 13 13 12 12 12 12 12 12 12
17 17 17 17 17 17 17 16 16 16 16 16 16 16 16 15 15 15 15 15 15 15 15 15 14 14 14 14 14 14 14 13 13 13 13 13 12 12 12 12 12 12 11
18 17 17 17 17 17 17 16 16 16 16 16 16 16 16 15 15 15 15 15 15 15 15 15 14 14 14 14 14 14 14 13 13 13 13 12 12 12 12 12 12 11 11
18 18 17 17 17 17 17 16 16 16 16 16 16 16 16 15 15 15 15 15 15 15 15 14 14 14 14 14 14 14 13 13 13 13 13 13 12 12 12 12 11 11 11
18 18 17 17 17 17 17 17 16 16 16 16 16 16 16 15 15 15 15 15 15 15 14 14 14 14 14 14 14 14 13 13 13 13 13 12 12 12 12 11 11 11 11
18 18 18 18 17 17 17 17 16 16 16 16 16 16 16 15 15 15 15 15 15 15 14 14 14 14 14 13 13 13 13 13 13 12 12 12 12 12 11 11 11 11 11
18 18 18 18 17 17 17 17 16 16 16 16 16 15 15 15 15 15 15 15 15 15 14 14 14 14 13 13 13 13 13 13 12 12 12 12 12 11 11 11 11 10 10
18 18 18 18 18 17 17 17 16 16 16 16 15 15 15 15 15 15 15 15 15 15 14 14 14 13 13 13 13 13 13 12 12 12 12 11 11 11 11 10 10 10 10
18 18 18 18 17 17 17 17 16 16 16 15 15 15 15 15 15 15 15 15 14 14 14 14 13 13 13 13 13 12 12 12 12 12 11 11 11 11 10 10 10 10 9
18 18 18 18 17 17 17 17 16 16 16 15 15 15 15 15 15 15 15 14 14 14 14 13 13 13 13 12 12 12 12 12 11 11 11 11 10 10 10 10 10 9 9
19 18 18 18 17 17 17 16 16 16 16 15 15 15 15 15 15 15 15 14 14 14 14 13 13 13 12 12 12 12 11 11 11 11 11 10 10 10 10 9 9 9 9
18 18 18 18 17 17 17 16 16 16 16 16 16 16 15 15 15 15 14 14 14 13 13 13 13 12 12 12 12 11 11 11 11 10 10 10 10 10 9 9 9 8 8
18 18 18 17 17 17 16 16 16 15 15 15 15 15 15 15 14 14 14 13 13 13 12 12 12 12 12 12 11 11 11 11 10 10 10 10 9 9 9 9 8 8 8
18 18 17 17 17 17 16 16 16 15 15 15 15 14 14 14 14 13 13 13 12 12 12 12 12 12 11 11 11 11 10 10 10 10 9 9 9 8 8 8 8 7 7
17 17 17 17 17 16 16 16 15 15 15 14 14 14 14 13 13 13 12 12 12 12 12 12 12 11 11 11 11 10 10 10 9 9 9 9 8 8 8 7 7 7 6
17 17 16 16 16 16 16 15 15 15 14 14 14 14 13 13 13 12 12 12 12 12 12 11 11 11 11 10 10 10 10 9 9 9 8 8 8 7 7 7 6 6 6
16 16 16 16 16 15 15 15 15 14 14 14 14 13 13 13 12 12 12 12 12 11 11 11 11 10 10 10 10 9 9 9 9 8 8 8 7 7 6 6 6 5 5
15 15 15 15 15 15 15 14 14 14 14 14 13 13 13 13 12 12 12 12 11 11 11 11 10 10 10 9 9 9 9 8 8 8 7 7 7 6 6 5 5 5 4
15 15 15 15 15 14 14 14 14 14 13 13 13 13 12 12 12 12 11 11 11 11 10 10 10 10 9 9 9 8 8 8 8 7 7 6 6 6 5 5 4 4 4
14 14 14 14 14 14 14 13 13 13 13 13 12 12 12 12 11 11 11 11 11 10 10 10 10 9 9 9 8 8 8 7 7 7 6 6 5 5 5 4 4 4 3
14 14 14 14 13 13 13 13 13 13 12 12 12 12 12 11 11 11 11 10 10 10 9 9 9 9 9 8 8 8 7 7 6 6 5 5 5 5 4 4 3 3 3
13 13 13 13 13 13 12 12 12 12 12 12 11 11 11 11 11 10 10 10 9 9 9 9 9 8 8 8 8 7 7 6 6 5 5 5 4 4 4 3 3 2 2
13 13 12 12 12 12 12 12 11 11 11 11 11 11 10 10 10 10 9 9 9 9 8 8 8 8 7 7 7 6 6 6 5 5 4 4 4 3 3 3 2 2 1
Wind_Speed
7 6 6 6 6 6 5 5 5 4 5 5 5 5 5 5 5 6 5 5 6 5 5 6 5 4 4 4 4 4 4 4 4 1 2 2 3 3 4 6 6 6 7
7 7 6 6 6 6 5 5 5 5 5 5 5 5 5 5 5 6 6 5 6 5 4 5 4 4 5 4 4 4 3 3 5 3 2 2 2 2 3 3 5 5 5
7 8 7 7 7 6 6 5 5 6 5 5 6 6 5 5 5 5 5 5 5 5 4 5 4 5 4 3 4 4 3 4 4 4 1 2 2 2 3 3 4 5 5
8 8 8 8 8 7 6 6 5 6 6 6 5 5 5 5 5 5 5 5 5 4 4 4 4 5 5 4 4 4 4 5 4 4 2 2 2 2 2 2 3 4 4
9 9 9 8 7 7 6 6 5 6 6 6 6 5 5 5 5 6 6 6 6 5 3 3 3 5 6 5 4 4 5 4 3 3 2 2 2 2 1 1 1 3 3
10 10 8 8 7 7 7 6 6 6 5 6 6 6 5 4 8 10 8 6 5 5 4 3 2 4 5 6 7 7 6 5 4 3 1 1 1 1 1 0 0 2 3
11 10 9 9 8 8 7 7 7 6 6 6 5 6 6 6 9 10 10 7 5 5 4 3 3 3 4 4 5 6 4 5 6 5 4 3 2 3 1 0 0 1 2
11 10 10 10 9 8 8 8 7 6 6 5 5 6 6 6 9 10 10 6 5 4 4 5 5 3 4 5 4 3 2 1 2 3 3 3 3 3 3 2 2 1 2
12 12 12 11 11 9 9 8 7 6 6 5 5 6 6 5 8 10 10 5 4 3 2 3 5 4 6 7 6 4 1 1 1 2 2 1 0 1 3 2 1 1 2
13 13 12 11 12 11 10 8 6 6 6 6 5 5 6 5 7 10 10 5 4 2 1 2 5 6 6 8 6 5 3 2 0 2 2 2 2 2 1 1 2 1 1
12 11 11 11 11 10 9 7 7 7 6 6 6 4 4 5 6 9 10 5 5 4 3 2 2 6 6 7 6 5 5 3 1 1 0 2 2 2 2 1 2 2 2
10 11 11 11 10 9 9 8 7 8 7 6 5 4 2 3 5 7 10 9 8 5 4 3 3 5 6 5 4 4 5 3 2 1 0 1 2 2 2 2 1 3 4
11 12 11 11 9 9 10 9 7 7 7 6 5 5 4 3 4 7 9 10 10 5 4 5 5 5 4 3 3 4 4 2 2 1 1 2 2 2 1 2 3 2 3
11 11 10 11 9 8 8 8 8 8 8 7 7 6 5 3 3 4 4 5 6 5 3 3 4 3 2 2 1 1 2 2 3 2 2 2 2 1 1 1 2 2 2
10 10 9 9 9 8 7 6 8 8 10 9 8 7 7 7 8 10 8 6 5 5 5 3 2 1 1 0 0 0 0 1 1 1 1 1 1 2 2 2 1 1 1
9 9 8 7 8 7 7 4 3 4 7 9 9 8 6 7 8 10 11 10 10 11 7 3 3 3 3 3 2 1 1 1 2 2 1 1 2 2 3 2 1 1 3
8 8 7 8 8 8 7 7 5 2 3 4 7 8 8 7 8 10 10 10 10 11 5 4 4 4 3 3 3 3 2 2 2 2 2 2 2 2 2 2 2 2 3
7 8 8 7 7 8 7 7 7 6 5 2 1 5 6 7 7 8 9 8 4 4 3 4 4 4 4 4 3 3 2 1 1 1 2 1 1 1 2 2 2 3 4
6 5 6 6 6 7 7 6 6 6 5 4 2 2 4 5 6 7 9 5 5 4 4 4 4 4 3 3 3 3 3 2 2 2 2 2 1 1 2 2 3 4 3
5 7 7 6 6 6 6 6 6 5 5 5 4 4 4 4 3 3 4 3 4 4 4 4 4 4 4 4 3 3 3 2 2 2 2 2 2 2 2 3 3 3 3
5 6 8 6 6 6 6 6 6 5 5 5 4 4 8 5 5 5 5 4 5 5 4 4 4 3 4 3 3 4 4 3 3 3 2 2 2 2 3 3 3 3 3
5 5 5 5 5 5 5 5 5 5 5 5 3 3 7 4 4 4 4 4 4 4 4 4 3 3 4 4 4 4 4 3 3 3 3 2 2 2 2 2 2 3 3
6 6 5 5 5 6 6 4 5 5 4 4 4 4 4 4 3 4 4 4 3 3 4 4 4 3 4 6 7 6 5 5 5 4 3 3 2 2 2 2 3 3 3
5 6 6 5 5 5 5 4 4 4 4 4 4 4 4 4 4 3 3 3 3 3 4 4 5 5 5 5 6 6 7 7 6 5 5 4 3 3 2 2 3 3 4
5 5 5 5 4 4 4 4 3 3 3 3 3 3 3 3 3 3 2 3 3 3 3 4 4 4 5 5 5 5 5 5 5 4 4 4 3 3 2 3 3 3 3
5 5 5 4 4 4 4 4 3 3 3 3 3 3 3 3 3 3 2 2 3 3 3 3 3 4 4 4 5 5 5 5 4 4 3 3 2 2 2 2 3 2 3
Wind_Direction
170 167 163 164 158 152 152 160 156 146 143 141 136 123 114 107 102 100 98 98 95 84 80 87 80 76 76 68 78 87 94 111 117 20 358 3 23 31 35 43 43 46 48
172 165 168 160 153 150 158 163 150 142 144 143 136 130 129 122 116 117 118 111 110 106 98 95 88 85 76 70 79 84 87 96 120 115 7 8 11 2 14 19 29 31 34
169 163 164 161 159 163 167 162 152 144 139 134 133 137 139 136 128 124 124 120 120 120 118 115 111 101 89 82 84 87 87 85 88 113 78 1 0 4 20 13 18 12 16
169 167 170 173 172 172 167 160 159 152 147 147 145 146 145 143 138 130 123 122 117 113 115 120 122 124 128 117 102 101 102 91 83 91 79 15 356 348 31 15 1 354 356
171 174 181 178 170 166 163 162 156 152 154 150 144 144 143 147 151 144 135 131 127 119 107 105 117 129 136 133 127 129 118 106 96 91 77 29 356 354 335 322 354 338 340
175 181 178 169 165 167 167 160 152 152 148 140 145 146 146 158 157 155 146 137 134 132 128 116 102 105 113 113 116 128 135 133 138 129 130 160 267 269 293 354 1 9 334
178 178 175 172 170 171 165 154 156 159 148 142 147 143 146 156 154 150 148 141 141 147 150 146 134 124 115 107 98 93 93 121 142 150 157 196 212 223 179 69 225 208 254
178 178 176 173 172 169 164 165 167 158 155 154 153 151 145 157 156 151 148 136 137 150 159 160 155 160 156 139 122 95 61 41 127 136 165 196 200 192 177 182 196 223 299
183 183 181 177 174 171 174 175 169 160 161 163 159 157 154 164 161 156 147 135 135 148 168 167 165 169 171 152 134 132 104 342 52 131 158 161 19 185 149 99 62 48 337
189 187 181 177 176 180 183 176 164 162 169 162 160 167 168 176 171 163 153 143 147 159 168 187 182 178 173 160 153 154 167 235 265 43 35 9 8 6 23 144 171 166 241
186 179 177 179 181 180 174 165 156 159 157 159 164 174 181 189 185 176 168 163 172 174 179 198 209 183 173 168 166 173 191 189 169 146 13 350 2 358 351 328 169 167 190
171 173 176 178 178 173 165 163 159 159 161 167 169 181 204 207 195 191 186 183 176 172 191 201 199 173 169 168 172 183 175 148 128 113 61 314 308 302 307 321 262 217 217
168 174 176 175 174 170 171 169 162 165 170 178 178 193 210 213 209 195 190 186 179 179 191 180 171 160 155 162 170 166 155 143 137 145 236 268 272 281 341 1 352 341 313
171 175 173 172 172 173 174 173 173 176 179 183 188 197 201 198 204 197 190 187 182 183 177 156 145 135 140 139 110 129 147 166 168 197 239 268 296 325 323 301 308 321 327
169 172 171 170 169 170 171 177 182 190 189 188 196 192 189 206 216 194 180 184 182 174 146 114 100 102 123 101 72 68 125 137 181 227 235 281 308 318 311 314 310 318 297
163 166 166 165 164 164 160 152 149 165 182 187 186 182 197 200 186 183 186 181 172 157 139 155 180 185 193 197 196 210 212 216 223 219 225 245 266 279 295 309 311 295 291
162 164 161 162 163 163 163 165 160 117 118 161 177 179 182 179 175 176 175 168 164 154 154 179 191 197 202 200 200 205 220 230 218 203 223 245 259 275 289 299 306 306 299
146 153 155 161 163 165 168 168 167 165 164 163 175 179 179 173 168 167 160 142 146 163 178 188 199 203 204 205 208 216 225 220 204 211 223 237 244 257 278 290 291 289 294
143 147 150 151 155 157 155 154 157 162 163 154 134 133 161 151 142 147 145 150 172 187 196 202 204 202 203 203 204 203 200 201 204 206 216 226 233 239 266 280 285 292 295
140 142 144 148 146 143 145 150 156 161 162 162 171 171 146 124 130 150 162 170 179 191 194 200 206 204 201 200 198 195 198 204 207 214 228 235 237 236 250 264 273 281 282
134 140 137 137 144 149 153 160 163 163 168 174 183 169 158 161 173 175 180 188 194 201 203 203 204 204 204 198 198 199 202 213 215 218 226 235 237 249 256 259 266 270 280
139 139 141 142 143 145 149 151 153 158 164 166 155 147 163 160 171 177 187 196 200 199 190 185 196 203 200 198 196 200 207 216 221 224 231 238 243 249 255 263 272 277 278
135 135 132 133 134 139 141 142 150 158 163 167 161 154 166 183 189 191 197 202 197 191 179 176 187 201 201 197 193 190 202 215 214 208 216 229 238 244 250 260 266 275 278
131 135 137 137 136 141 148 153 157 160 163 166 167 171 178 187 193 197 202 198 187 185 181 183 190 199 198 196 200 206 210 214 211 208 205 216 230 239 247 257 263 268 275
128 132 136 141 145 149 150 149 153 159 161 166 172 178 181 181 187 197 201 189 184 189 191 191 192 196 197 197 200 207 216 217 217 214 209 204 220 234 242 256 268 277 280
125 127 129 131 136 142 145 149 152 154 159 168 173 178 181 185 189 194 193 183 187 190 190 188 189 187 189 196 202 203 207 213 214 213 203 197 211 238 247 258 266 274 281
Height
1553 1555 1557 1559 1560 1561 1562 1563 1564 1565 1566 1567 1567 1568 1568 1569 1569 1569 1569 1570 1570 1570 1571 1571 1571 1572 1572 1572 1572 1572 1572 1572 1571 1572 1572 1572 1571 1570 1568 1567 1565 1563 1562
1552 1554 1556 1558 1559 1561 1562 1563 1564 1565 1566 1567 1568 1568 1569 1569 1570 1570 1570 1571 1571 1571 1571 1572 1572 1572 1572 1572 1572 1572 1573 1573 1572 1572 1572 1572 1571 1571 1570 1568 1567 1565 1563
1551 1553 1555 1557 1558 1560 1561 1563 1564 1565 1566 1567 1568 1569 1569 1570 1571 1571 1571 1571 1572 1572 1572 1573 1573 1573 1573 1573 1573 1573 1573 1573 1573 1573 1573 1573 1572 1572 1570 1569 1568 1566 1564
1549 1551 1553 1555 1557 1559 1560 1562 1563 1564 1566 1567 1568 1569 1570 1570 1571 1571 1572 1572 1572 1573 1573 1573 1573 1573 1573 1573 1574 1574 1574 1574 1574 1574 1573 1573 1572 1572 1571 1569 1568 1566 1565
1546 1549 1551 1554 1556 1557 1559 1561 1562 1564 1565 1567 1568 1569 1570 1570 1571 1571 1572 1573 1573 1573 1573 1574 1574 1574 1574 1574 1574 1574 1574 1574 1574 1574 1573 1573 1572 1571 1570 1569 1568 1566 1564
1544 1546 1549 1552 1554 1556 1558 1560 1561 1563 1564 1566 1567 1568 1569 1570 1571 1572 1572 1573 1573 1574 1574 1574 1574 1575 1575 1575 1575 1575 1575 1574 1574 1574 1573 1572 1572 1571 1570 1569 1567 1565 1564
1540 1544 1546 1549 1552 1554 1556 1558 1560 1562 1563 1565 1566 1567 1568 1569 1571 1572 1572 1573 1573 1574 1574 1575 1575 1575 1575 1575 1575 1574 1574 1574 1574 1574 1573 1572 1571 1570 1569 1568 1566 1565 1563
1537 1540 1543 1546 1549 1552 1554 1556 1558 1560 1562 1564 1565 1566 1568 1569 1570 1571 1572 1572 1573 1573 1574 1574 1575 1575 1575 1575 1574 1574 1574 1574 1573 1573 1572 1571 1571 1570 1568 1567 1565 1563 1562
1533 1536 1540 1543 1546 1549 1551 1553 1556 1558 1560 1562 1564 1565 1566 1568 1569 1570 1571 1571 1572 1572 1573 1573 1574 1574 1574 1574 1574 1573 1573 1573 1572 1572 1571 1570 1569 1568 1567 1565 1564 1562 1559
1529 1533 1537 1540 1543 1546 1548 1551 1553 1556 1558 1560 1562 1563 1565 1566 1567 1568 1569 1570 1570 1571 1571 1572 1572 1573 1573 1573 1572 1572 1571 1571 1571 1570 1570 1569 1568 1566 1565 1564 1562 1560 1558
1525 1529 1533 1537 1540 1543 1546 1548 1551 1553 1555 1558 1560 1561 1563 1564 1566 1567 1567 1568 1569 1569 1569 1570 1571 1571 1571 1571 1571 1570 1570 1570 1569 1569 1568 1567 1566 1564 1563 1562 1560 1558 1556
1522 1526 1530 1533 1537 1540 1543 1545 1548 1550 1553 1555 1557 1559 1560 1562 1563 1564 1565 1566 1567 1567 1567 1568 1568 1569 1569 1569 1569 1568 1568 1568 1567 1566 1565 1564 1563 1562 1561 1559 1558 1556 1554
1519 1522 1526 1530 1533 1536 1539 1542 1545 1547 1549 1551 1553 1555 1557 1559 1560 1561 1562 1563 1564 1564 1565 1565 1566 1566 1566 1566 1566 1566 1566 1565 1564 1563 1562 1561 1560 1559 1558 1556 1554 1553 1551
1515 1519 1522 1526 1529 1532 1536 1538 1541 1543 1545 1548 1550 1552 1554 1555 1557 1558 1559 1560 1561 1561 1562 1562 1563 1563 1563 1563 1563 1563 1563 1562 1562 1561 1559 1559 1557 1556 1554 1553 1551 1549 1547
1512 1515 1519 1522 1525 1529 1532 1534 1537 1540 1542 1544 1546 1549 1550 1552 1553 1555 1556 1557 1557 1558 1559 1559 1559 1559 1559 1560 1560 1560 1560 1559 1558 1557 1556 1555 1554 1552 1551 1549 1547 1545 1543
1509 1512 1516 1519 1522 1525 1528 1531 1534 1537 1539 1541 1544 1546 1547 1549 1550 1551 1552 1553 1554 1555 1555 1555 1555 1556 1556 1556 1556 1556 1556 1556 1555 1554 1553 1552 1550 1549 1547 1545 1544 1542 1539
1506 1509 1512 1516 1519 1522 1525 1527 1530 1533 1536 1538 1540 1542 1544 1546 1547 1548 1549 1550 1550 1551 1551 1551 1552 1552 1552 1553 1553 1553 1552 1552 1552 1551 1549 1548 1547 1545 1543 1542 1540 1538 1535
1505 1508 1510 1513 1516 1519 1522 1524 1527 1529 1532 1534 1536 1538 1540 1542 1543 1544 1545 1546 1546 1547 1547 1547 1548 1548 1549 1549 1549 1549 1549 1548 1548 1547 1545 1544 1543 1541 1540 1538 1536 1534 1532
1503 1506 1508 1511 1514 1516 1519 1522 1524 1527 1529 1531 1533 1535 1536 1538 1539 1540 1541 1541 1542 1542 1543 1544 1544 1545 1545 1545 1545 1545 1545 1544 1543 1543 1541 1540 1539 1537 1535 1533 1532 1530 1528
1502 1504 1507 1509 1511 1514 1517 1519 1522 1524 1526 1527 1529 1531 1533 1534 1535 1536 1537 1537 1538 1539 1539 1540 1540 1541 1541 1541 1541 1541 1540 1540 1539 1538 1537 1536 1534 1533 1531 1529 1527 1525 1523
1500 1503 1505 1507 1509 1512 1514 1517 1519 1521 1523 1525 1526 1528 1530 1531 1531 1532 1533 1534 1534 1535 1536 1536 1536 1537 1537 1537 1537 1536 1536 1535 1534 1533 1532 1531 1529 1528 1526 1524 1523 1521 1519
1499 1502 1504 1506 1508 1510 1512 1515 1517 1519 1520 1522 1524 1525 1527 1528 1528 1529 1530 1530 1531 1532 1532 1533 1532 1532 1532 1532 1532 1531 1531 1530 1529 1528 1527 1526 1524 1523 1521 1520 1518 1516 1514
1498 1500 1502 1504 1507 1509 1511 1513 1514 1516 1518 1519 1521 1522 1523 1524 1525 1525 1526 1527 1527 1528 1528 1529 1528 1528 1528 1528 1527 1527 1526 1525 1524 1523 1522 1521 1519 1518 1516 1514 1513 1511 1509
1497 1499 1501 1503 1505 1507 1509 1510 1512 1514 1515 1516 1518 1519 1519 1520 1521 1522 1522 1523 1524 1524 1524 1524 1524 1524 1524 1523 1523 1522 1521 1520 1519 1518 1517 1516 1514 1512 1511 1509 1507 1506 1504
1497 1498 1500 1502 1503 1505 1507 1508 1510 1511 1512 1513 1514 1515 1516 1517 1517 1518 1519 1519 1519 1519 1520 1519 1519 1519 1519 1518 1518 1517 1516 1515 1514 1513 1512 1510 1509 1507 1506 1504 1502 1501 1499
1495 1497 1498 1500 1502 1503 1504 1506 1507 1508 1509 1510 1511 1511 1512 1513 1513 1514 1514 1515 1515 1515 1515 1514 1514 1514 1514 1513 1513 1512 1511 1510 1509 1508 1507 1505 1504 1502 1501 1499 1497 1496 1494